contact:dominique.lefevre@mio.osupytheas.fr, maurice.libes@osupytheas.fr
Project:EMSO Ligure-ouest http://www.emso-fr.org/EMSO-France
Sensor Aquadopp, line 13 Serial AQD14315 
DOI : "https://doi.org/10.17882/74513; https://doi.org/10.17882/83244" 
Title:EMSO Ligure Ouest : Data ligne ALBATROSS capteur AQUADOPP - deploiement 2021
Id,Date,Profondeur,Latitude,Longitude,X_East,Y_North,Z_Up,Amplitude_X,Amplitude_Y,Amplitude_Z,Batterie,SoundSpeed,Heading,Pitch,Roll,Pressure,Temperature,Speed,Direction
, , m, degrees North, degrees East, m.s-1, m.s-1,m.s-1, 1, 1, 1, Volt, m.s-1, degree, degree, degree, dbar, degree_C, m.s-1, degree
11,2022-05-23T21:30:00,2200.0,42.79,6.0312,0.019,-0.061,-0.009,60.0,63.0,67.0,11.8,1504.3,180.2,-0.3,0.4,2192.698,13.17,0.063,162.7
11,2022-05-23T22:00:00,2200.0,42.79,6.0312,-0.002,-0.068,-0.001,62.0,63.0,63.0,11.8,1504.3,198.2,-0.7,-0.1,2192.706,13.17,0.068,181.7
11,2022-05-23T22:30:00,2200.0,42.79,6.0312,0.017,-0.052,0.008,59.0,64.0,66.0,11.8,1504.3,190.5,-1.0,0.4,2192.706,13.17,0.054,161.9
11,2022-05-23T23:00:00,2200.0,42.79,6.0312,0.011,-0.052,0.001,61.0,62.0,65.0,11.9,1504.3,195.4,-0.8,0.4,2192.739,13.17,0.053,168.1
11,2022-05-23T23:30:00,2200.0,42.79,6.0312,0.001,-0.061,0.009,59.0,65.0,64.0,11.8,1504.3,197.8,-0.7,0.0,2192.736,13.17,0.061,179.1
11,2022-05-24T00:00:00,2200.0,42.79,6.0312,-0.003,-0.055,0.013,61.0,63.0,63.0,11.8,1504.3,199.3,-1.0,0.0,2192.783,13.17,0.055,183.1
11,2022-05-24T00:30:00,2200.0,42.79,6.0312,-0.002,-0.055,0.015,63.0,64.0,65.0,11.9,1504.3,194.8,-0.9,0.1,2192.826,13.17,0.055,182.1
11,2022-05-24T01:30:00,2200.0,42.79,6.0312,-0.009,-0.049,0.0,62.0,65.0,64.0,11.8,1504.3,201.5,-0.7,-0.1,2192.81,13.17,0.049,190.4
11,2022-05-24T02:00:00,2200.0,42.79,6.0312,0.001,-0.053,-0.003,60.0,64.0,63.0,11.9,1504.3,195.2,-0.8,0.0,2192.883,13.17,0.053,178.9
11,2022-05-24T02:30:00,2200.0,42.79,6.0312,-0.005,-0.05,-0.005,61.0,62.0,66.0,11.8,1504.3,200.3,-0.9,0.3,2192.83,13.17,0.05,185.7
11,2022-05-24T03:00:00,2200.0,42.79,6.0312,-0.011,-0.041,0.001,60.0,64.0,64.0,11.9,1504.3,201.0,-0.9,0.4,2192.827,13.17,0.042,195.0
11,2022-05-24T03:30:00,2200.0,42.79,6.0312,-0.008,-0.046,0.012,60.0,62.0,64.0,11.9,1504.3,202.7,-0.7,0.0,2192.829,13.17,0.046,189.9
11,2022-05-24T04:00:00,2200.0,42.79,6.0312,-0.002,-0.043,0.004,60.0,63.0,64.0,11.8,1504.3,204.2,-0.8,0.0,2192.826,13.17,0.043,182.7
11,2022-05-24T04:30:00,2200.0,42.79,6.0312,-0.01,-0.037,-0.001,60.0,64.0,66.0,11.9,1504.3,202.8,-1.0,0.4,2192.809,13.17,0.038,195.1
11,2022-05-24T05:00:00,2200.0,42.79,6.0312,0.009,-0.033,0.02,64.0,63.0,66.0,11.8,1504.3,208.3,-0.5,-0.1,2192.797,13.17,0.034,164.7
11,2022-05-24T05:30:00,2200.0,42.79,6.0312,0.003,-0.036,0.003,61.0,71.0,66.0,11.8,1504.3,205.2,-0.8,0.2,2192.802,13.17,0.036,175.2
11,2022-05-24T06:00:00,2200.0,42.79,6.0312,0.004,-0.04,0.013,62.0,65.0,64.0,11.9,1504.3,205.3,-0.7,0.3,2192.757,13.17,0.04,174.3
11,2022-05-24T06:30:00,2200.0,42.79,6.0312,0.004,-0.047,0.003,60.0,66.0,66.0,11.9,1504.3,206.3,-0.5,0.3,2192.734,13.17,0.047,175.1
11,2022-05-24T07:00:00,2200.0,42.79,6.0312,-0.004,-0.044,0.004,62.0,62.0,65.0,11.9,1504.3,205.1,-0.7,0.3,2192.715,13.17,0.044,185.2
11,2022-05-24T07:30:00,2200.0,42.79,6.0312,-0.001,-0.046,0.001,61.0,66.0,63.0,11.8,1504.3,205.2,-0.9,0.4,2192.755,13.17,0.046,181.2
11,2022-05-24T08:00:00,2200.0,42.79,6.0312,-0.012,-0.032,0.001,64.0,66.0,66.0,11.8,1504.3,208.2,-0.8,0.3,2192.721,13.17,0.034,200.6
11,2022-05-24T08:30:00,2200.0,42.79,6.0312,-0.009,-0.042,0.016,59.0,64.0,71.0,11.8,1504.3,206.8,-0.9,0.0,2192.695,13.17,0.042,192.1
11,2022-05-24T09:00:00,2200.0,42.79,6.0312,0.0,-0.039,-0.003,60.0,66.0,66.0,11.8,1504.3,205.0,-0.9,0.0,2192.656,13.17,0.039,180.0
11,2022-05-24T09:30:00,2200.0,42.79,6.0312,-0.008,-0.044,0.01,60.0,65.0,65.0,11.8,1504.3,206.0,-0.9,-0.1,2192.679,13.17,0.044,190.3
11,2022-05-24T10:00:00,2200.0,42.79,6.0312,-0.007,-0.054,0.016,61.0,65.0,64.0,11.8,1504.3,204.5,-0.6,0.3,2192.673,13.17,0.054,187.4
11,2022-05-24T11:00:00,2200.0,42.79,6.0312,0.008,-0.052,0.013,61.0,65.0,66.0,11.8,1504.3,201.4,-0.7,0.3,2192.624,13.17,0.052,171.3
11,2022-05-24T11:30:00,2200.0,42.79,6.0312,0.005,-0.036,0.014,60.0,62.0,65.0,11.8,1504.3,194.5,-0.6,0.3,2192.679,13.17,0.036,172.1
11,2022-05-24T12:00:00,2200.0,42.79,6.0312,-0.006,-0.055,0.019,60.0,66.0,66.0,11.8,1504.2,197.7,-0.8,0.0,2192.643,13.16,0.055,186.2
11,2022-05-24T12:30:00,2200.0,42.79,6.0312,-0.008,-0.048,0.007,61.0,65.0,66.0,11.8,1504.3,192.3,-0.5,0.0,2192.679,13.17,0.048,189.5
11,2022-05-24T13:00:00,2200.0,42.79,6.0312,0.001,-0.058,-0.003,61.0,64.0,65.0,11.8,1504.2,188.0,-0.8,0.3,2192.675,13.16,0.058,179.0
11,2022-05-24T13:30:00,2200.0,42.79,6.0312,-0.017,-0.051,-0.013,60.0,63.0,66.0,11.8,1504.2,189.9,-0.4,0.3,2192.682,13.16,0.053,198.4
11,2022-05-24T14:00:00,2200.0,42.79,6.0312,-0.009,-0.049,0.0,63.0,68.0,64.0,11.9,1504.2,192.3,-0.5,0.1,2192.703,13.16,0.049,190.4
11,2022-05-24T14:30:00,2200.0,42.79,6.0312,0.0,-0.05,-0.005,62.0,65.0,65.0,11.9,1504.2,192.7,-0.6,0.0,2192.713,13.16,0.05,180.0
11,2022-05-24T15:00:00,2200.0,42.79,6.0312,-0.01,-0.059,-0.01,61.0,64.0,65.0,11.9,1504.2,188.9,-0.6,0.3,2192.727,13.16,0.059,189.6
11,2022-05-24T15:30:00,2200.0,42.79,6.0312,-0.008,-0.042,-0.004,62.0,62.0,66.0,11.8,1504.2,184.2,-0.5,-0.1,2192.724,13.16,0.042,190.8
11,2022-05-24T16:00:00,2200.0,42.79,6.0312,-0.001,-0.054,0.008,62.0,63.0,64.0,11.8,1504.3,184.6,-0.6,0.2,2192.706,13.17,0.054,181.1
11,2022-05-24T16:30:00,2200.0,42.79,6.0312,0.001,-0.044,-0.002,62.0,62.0,64.0,11.8,1504.3,178.3,-1.1,0.4,2192.753,13.17,0.044,178.7
11,2022-05-24T17:00:00,2200.0,42.79,6.0312,-0.01,-0.059,0.014,60.0,63.0,66.0,11.8,1504.3,183.2,-1.0,0.3,2192.736,13.17,0.059,189.6
11,2022-05-24T17:30:00,2200.0,42.79,6.0312,-0.01,-0.059,0.004,60.0,69.0,64.0,11.9,1504.3,177.0,-0.7,0.3,2192.744,13.17,0.059,189.6
11,2022-05-24T18:00:00,2200.0,42.79,6.0312,0.001,-0.053,0.008,62.0,63.0,64.0,11.8,1504.3,171.3,-1.1,0.4,2192.707,13.17,0.053,178.9
11,2022-05-24T18:30:00,2200.0,42.79,6.0312,-0.013,-0.058,0.002,62.0,62.0,66.0,11.8,1504.3,180.9,-0.6,0.2,2192.744,13.17,0.059,192.6
11,2022-05-24T19:00:00,2200.0,42.79,6.0312,-0.015,-0.056,-0.002,64.0,68.0,70.0,11.8,1504.3,176.7,-0.7,-0.1,2192.701,13.17,0.057,195.0
11,2022-05-24T19:30:00,2200.0,42.79,6.0312,-0.01,-0.052,-0.002,67.0,70.0,73.0,11.9,1504.3,180.0,-0.8,0.3,2192.701,13.17,0.052,190.9
11,2022-05-24T20:00:00,2200.0,42.79,6.0312,-0.003,-0.047,-0.008,67.0,70.0,73.0,11.8,1504.3,178.0,-0.9,0.3,2192.712,13.17,0.047,183.6
11,2022-05-24T20:30:00,2200.0,42.79,6.0312,0.016,-0.049,0.0,68.0,69.0,71.0,11.8,1504.3,173.6,-0.9,0.1,2192.668,13.17,0.051,161.9
11,2022-05-24T21:00:00,2200.0,42.79,6.0312,0.016,-0.05,0.007,65.0,69.0,73.0,11.8,1504.3,175.4,-0.4,0.3,2192.716,13.17,0.052,162.3
